CZ-6A DEB

Satellite information

Favourite Embed

Satellite Type and Status

DEBRISIN ORBIT

Key statistics

Satellite CZ-6A DEB at a glance.

Uptime

1033

Days in orbit

Revolutions

≈ 14.1

Per day

Orbit

SSO

Sun Synchronous Orbit

Inclination

98.8

Latest

Satellite identification and parameters

Extended collection of information and parameters for CZ-6A DEB.

Object identification

Identified? True

Debris? True

Object name: CZ-6A DEB

International designator: 2022-151YF

Object number (NORAD): 55533

Object ID (CCSDS): 55533

Country: PEOPLES REPUBLIC OF CHINA (PRC)

Current information (Y/N): Y

RCS size: SMALL

Orbital parameters

Period: 102.129 minutes

Inclination: 98.8309 deg

SMA: 7237.587 km

Apoapsis: 890.19 km

Periapsis: 828.714 km

RAAN: 250.8442 deg

Eccentricy: 0.00424703

Argument of periapsis: 52.8731 deg

Mean anomaly: 307.6308 deg

Mean motion: 14.09977099 rev/day

Mean motion (dot): 0.00000109 rev/day2

B* drag term: 0.000085564798 1/REarth

Two-line elements (TLE)

Creation date: Sept. 8, 2025, 3:16 a.m.

Reference frame: TEME

Reference center: EARTH

Epoch: Sept. 7, 2025, 10:45 a.m. UTC

TLE line 0: 0 CZ-6A DEB

TLE line 1: 1 55533U 22151YF 25250.44812614 .00000109 00000-0 85565-4 0 9999

TLE line 2: 2 55533 98.8309 250.8442 0042470 52.8731 307.6308 14.09977099139856

Live tracking on map

Real-time ground track for satellite CZ-6A DEB.

In-orbit conjunctions

A list of the most updated potential collisions computed for object CZ-6A DEB.

Target Orbit TCA Probability of collision Miss distance Type
SL-16 DEB LEO 2025-02-13 23:09:41 0.0001078255 307.0 (m) DEBRIS
FENGYUN 1C DEB SSO 2025-01-14 03:43:05 0.0001598753 55.0 (m) DEBRIS

Associated space launch

Chinese satellite reported for atmospheric/ocean/environmental/spatial parameter research purposes, details TBD.

CZ-6A DEB was lifted into orbit during the mission ‘Long March 6A | Yunhai 3’, on board a Long March 6A space rocket.

The launch took place on Nov. 11, 2022, 10:52 p.m. from Launch Complex 9A.

For more information about the launch, click the button.

Launch to space Long March 6A | Yunhai 3
Long March 6A | Yunhai 3

Agency: N/A

Status: Launch Successful

Launch date: Nov. 11, 2022, 10:52 p.m. UTC

Rocket: Long March 6A

Launch pad: Launch Complex 9A

Location: Taiyuan Satellite Launch Center, People's Republic of China

...

Latest news about this satellite

There are no fresh news available about this satellite. Check back as we update our databases every day.


Newsletter sign-up

Weekly statistics, charts and insights to help you stay on top of the space industry.